Weather History for Chicago Lansing, IL

Change the Weather History Date:

Monday, October 28, 2013

  Actual Average (KMDW) Record (KMDW)
Temperature  
Mean Temperature 43 °F 50 °F  
Max Temperature 57 °F 58 °F 81 °F (1999)
Min Temperature 29 °F 42 °F 25 °F (1976)
Degree Days  
Heating Degree Days 22 15  
Month to date heating degree days 300  
Since 1 July heating degree days 382  
Cooling Degree Days 0 0  
Month to date cooling degree days 13  
Year to date cooling degree days 1042  
Moisture  
Dew Point 36 °F    
Average Humidity 75    
Maximum Humidity 89    
Minimum Humidity 56    
Precipitation  
Precipitation 0.00 in 0.12 in 0.65 in (1970)
Month to date precipitation 2.90  
Year to date precipitation 32.76  
Sea Level Pressure  
Sea Level Pressure 30.23 in    
Wind  
Wind Speed 3 mph (NNE)    
Max Wind Speed 12 mph    
Max Gust Speed 18 mph    
Visibility 10 miles    
Events      
T = Trace of Precipitation, MM = Missing Value Source: NWS Daily Summary

Daily Weather History Graph

Daily Weather History Graph

Search for Another Location

Airport:

Trip Planner

Search our weather history database for the weather conditions in past years. The results will help you decide how hot, cold, wet, or windy it might be!

Date:

Astronomy

Oct. 28, 2013 Rise Set
Actual Time 7:17 AM CDT 5:49 PM CDT
Civil Twilight 6:48 AM CDT 6:18 PM CDT
Nautical Twilight 6:16 AM CDT 6:50 PM CDT
Astronomical Twilight 5:44 AM CDT 7:22 PM CDT
Moon 1:05 AM CDT (10/28) 2:35 PM CDT (10/28)
Length of Visible Light 11h 29m
Length of Day
10h 32m
Waning Crescent, 34% of the Moon is Illuminated
Oct 28
Waning Crescent
Nov 3
New
Nov 9
First Quarter
Nov 17
Full
Nov 25
Last Quarter

Hourly Weather History & Observations

Time (CDT) Temp. Windchill Dew Point Humidity Pressure Visibility Wind Dir Wind Speed Gust Speed Precip Events Conditions
12:15 AM 36.0 °F 33.3 °F 27.3 °F 71% 30.08 in 10.0 mi SSW 3.5 mph - N/A   Clear
12:35 AM 36.7 °F - 28.0 °F 71% 30.09 in 10.0 mi Calm Calm - N/A   Clear
12:55 AM 36.1 °F - 27.9 °F 72% 30.09 in 10.0 mi Calm Calm - N/A   Clear
1:15 AM 34.2 °F - 27.5 °F 77% 30.09 in 10.0 mi Calm Calm - N/A   Scattered Clouds
1:35 AM 32.0 °F - 27.5 °F 83% 30.09 in 10.0 mi Calm Calm - N/A   Scattered Clouds
1:55 AM 32.0 °F 27.5 °F 27.7 °F 84% 30.09 in 10.0 mi South 4.6 mph - N/A   Scattered Clouds
2:15 AM 32.0 °F 28.7 °F 27.7 °F 84% 30.10 in 10.0 mi South 3.5 mph - N/A   Scattered Clouds
2:35 AM 32.2 °F - 27.7 °F 83% 30.10 in 10.0 mi Calm Calm - N/A   Clear
2:55 AM 32.0 °F - 27.5 °F 83% 30.10 in 10.0 mi Calm Calm - N/A   Clear
3:15 AM 32.2 °F - 28.0 °F 85% 30.10 in 10.0 mi Calm Calm - N/A   Clear
3:35 AM 31.5 °F - 27.3 °F 85% 30.10 in 10.0 mi Calm Calm - N/A   Clear
3:55 AM 32.4 °F - 28.6 °F 86% 30.10 in 10.0 mi Calm Calm - N/A   Clear
4:15 AM 32.0 °F - 27.9 °F 85% 30.11 in 10.0 mi Calm Calm - N/A   Clear
4:35 AM 30.7 °F - 26.8 °F 85% 30.12 in 10.0 mi Calm Calm - N/A   Clear
4:55 AM 30.9 °F - 27.3 °F 86% 30.12 in 10.0 mi Calm Calm - N/A   Clear
5:15 AM 31.5 °F - 27.5 °F 85% 30.13 in 10.0 mi Calm Calm - N/A   Clear
5:35 AM 32.7 °F 29.6 °F 28.9 °F 86% 30.16 in 10.0 mi NNW 3.5 mph 18.4 mph N/A   Clear
5:55 AM 31.8 °F - 27.1 °F 83% 30.16 in 10.0 mi Calm Calm - N/A   Clear
6:15 AM 31.1 °F 27.7 °F 26.6 °F 83% 30.15 in 10.0 mi South 3.5 mph - N/A   Clear
6:35 AM 30.6 °F - 26.6 °F 85% 30.16 in 10.0 mi Calm Calm - N/A   Clear
6:55 AM 30.6 °F - 26.6 °F 85% 30.17 in 10.0 mi Calm Calm - N/A   Clear
7:15 AM 30.2 °F - 25.9 °F 84% 30.18 in 10.0 mi Calm Calm - N/A   Clear
7:35 AM 29.8 °F - 26.4 °F 87% 30.19 in 10.0 mi Calm Calm - N/A   Clear
7:55 AM 29.8 °F - 26.4 °F 87% 30.21 in 10.0 mi Calm Calm - N/A   Clear
8:15 AM 30.2 °F - 27.3 °F 89% 30.22 in 10.0 mi Calm Calm - N/A   Clear
8:35 AM 33.8 °F - 30.2 °F 87% 30.22 in 10.0 mi Calm Calm - N/A   Clear
8:55 AM 37.8 °F - 32.2 °F 80% 30.23 in 10.0 mi Calm Calm - N/A   Clear
9:15 AM 41.9 °F - 34.7 °F 76% 30.23 in 10.0 mi Calm Calm - N/A   Clear
9:35 AM 46.4 °F - 37.4 °F 71% 30.24 in 10.0 mi Calm Calm - N/A   Clear
9:55 AM 50.0 °F - 41.2 °F 72% 30.24 in 10.0 mi Calm Calm - N/A   Clear
10:15 AM 52.2 °F - 42.4 °F 69% 30.24 in 10.0 mi NE 3.5 mph - N/A   Clear
10:35 AM 54.3 °F - 44.2 °F 69% 30.25 in 10.0 mi NNE 3.5 mph - N/A   Scattered Clouds
10:55 AM 54.0 °F - 43.7 °F 68% 30.25 in 10.0 mi NNE 9.2 mph - N/A   Mostly Cloudy
11:15 AM 54.1 °F - 43.5 °F 67% 30.25 in 10.0 mi North 8.1 mph - N/A   Scattered Clouds
11:35 AM 55.2 °F - 43.2 °F 64% 30.26 in 10.0 mi North 8.1 mph - N/A   Scattered Clouds
11:55 AM 54.9 °F - 42.8 °F 64% 30.26 in 10.0 mi North 4.6 mph - N/A   Scattered Clouds
12:15 PM 55.6 °F - 41.9 °F 60% 30.26 in 10.0 mi Calm Calm - N/A   Clear
12:35 PM 57.4 °F - 41.5 °F 56% 30.26 in 10.0 mi Calm Calm - N/A   Clear
12:55 PM 57.4 °F - 41.5 °F 56% 30.25 in 10.0 mi Calm Calm - N/A   Clear
1:15 PM 56.1 °F - 42.1 °F 59% 30.25 in 10.0 mi North 5.8 mph - N/A   Clear
1:35 PM 57.0 °F - 42.4 °F 58% 30.24 in 10.0 mi North 6.9 mph - N/A   Clear
1:55 PM 55.4 °F - 42.3 °F 61% 30.24 in 10.0 mi North 8.1 mph - N/A   Scattered Clouds
2:15 PM 54.9 °F - 42.1 °F 62% 30.25 in 10.0 mi NNE 11.5 mph - N/A   Clear
2:35 PM 53.2 °F - 41.5 °F 65% 30.25 in 10.0 mi Calm Calm - N/A   Clear
2:55 PM 53.2 °F - 41.4 °F 64% 30.25 in 10.0 mi NNE 5.8 mph - N/A   Clear
3:15 PM 53.1 °F - 41.5 °F 65% 30.25 in 10.0 mi North 8.1 mph - N/A   Clear
3:35 PM 52.9 °F - 41.0 °F 64% 30.26 in 10.0 mi North 5.8 mph - N/A   Clear
3:55 PM 52.3 °F - 40.8 °F 65% 30.26 in 10.0 mi North 9.2 mph - N/A   Clear
4:15 PM 52.0 °F - 40.5 °F 65% 30.27 in 10.0 mi North 8.1 mph - N/A   Clear
4:35 PM 52.0 °F - 40.8 °F 66% 30.27 in 10.0 mi North 10.4 mph - N/A   Clear
4:55 PM 51.3 °F - 41.0 °F 68% 30.27 in 10.0 mi North 9.2 mph - N/A   Clear
5:15 PM 50.7 °F - 41.2 °F 70% 30.28 in 10.0 mi NNE 8.1 mph - N/A   Clear
5:35 PM 49.8 °F - 41.0 °F 72% 30.28 in 10.0 mi North 9.2 mph - N/A   Clear
5:55 PM 49.1 °F - 41.4 °F 75% 30.29 in 10.0 mi North 9.2 mph - N/A   Clear
6:15 PM 48.2 °F - 41.2 °F 77% 30.29 in 10.0 mi North 8.1 mph - N/A   Clear
6:35 PM 48.2 °F - 41.2 °F 77% 30.29 in 10.0 mi North 6.9 mph - N/A   Clear
6:55 PM 48.2 °F - 41.0 °F 76% 30.30 in 10.0 mi North 8.1 mph - N/A   Clear
7:15 PM 47.8 °F - 41.0 °F 77% 30.31 in 10.0 mi NNE 6.9 mph - N/A   Clear
7:35 PM 48.2 °F - 41.0 °F 76% 30.31 in 10.0 mi NNE 10.4 mph 17.3 mph N/A   Clear
7:55 PM 48.0 °F - 41.0 °F 77% 30.32 in 10.0 mi NNE 8.1 mph - N/A   Clear
8:15 PM 47.7 °F - 41.0 °F 78% 30.32 in 10.0 mi NNE 10.4 mph - N/A   Clear
8:35 PM 47.8 °F - 41.0 °F 77% 30.32 in 10.0 mi NNE 9.2 mph - N/A   Clear
8:55 PM 48.0 °F - 40.8 °F 76% 30.33 in 10.0 mi NNE 6.9 mph - N/A   Mostly Cloudy
9:15 PM 47.7 °F - 40.5 °F 76% 30.33 in 10.0 mi NNE 10.4 mph 16.1 mph N/A   Mostly Cloudy
9:35 PM 47.7 °F - 40.3 °F 76% 30.34 in 10.0 mi NE 11.5 mph - N/A   Mostly Cloudy
9:55 PM 47.3 °F - 40.1 °F 76% 30.34 in 10.0 mi NE 11.5 mph 16.1 mph N/A   Scattered Clouds
10:15 PM 47.3 °F - 40.1 °F 76% 30.34 in 10.0 mi NE 11.5 mph - N/A   Clear
10:35 PM 46.6 °F - 39.7 °F 77% 30.34 in 10.0 mi NE 10.4 mph - N/A   Scattered Clouds
10:55 PM 46.4 °F 41.5 °F 39.7 °F 78% 30.34 in 10.0 mi NE 10.4 mph - N/A   Scattered Clouds
11:15 PM 45.9 °F 40.8 °F 39.4 °F 78% 30.35 in 10.0 mi NE 10.4 mph - N/A   Mostly Cloudy
11:35 PM 45.5 °F 40.3 °F 38.8 °F 78% 30.35 in 10.0 mi NE 10.4 mph - N/A   Scattered Clouds
11:55 PM 45.1 °F 40.8 °F 38.5 °F 77% 30.35 in 10.0 mi NE 8.1 mph - N/A   Clear